Location: Cerezo de Arriba
(41.2389°N, 3.5585°W)
Time: 03:16:52
(UTC+00:00)

CZ-2C R/B - Pass Details

Date: 19 May 2025
Orbit: 631 x 692 km, 98.1° (Epoch: 23 June)

Event Time Altitude Azimuth Distance (km) Brightness Sun altitude
Rises 23:16:07 0° 9° (N) 2,934 8.0 -27.5°
Reaches altitude 10° 23:18:20 10° 6° (N) 2,021 7.0 -27.6°
Enters shadow 23:22:00 55° 331° (NNW) 764 4.2 -27.7°
